SCP
0 0 0 0 0 0 0 0 0 0 0 0 0 0 0 0 -0 0 0 -0 -0 -0 -0 -0 -0 -0 -0 -0 -0 -0 -0 -0 -0 -0 -0 -0 -0 -0 -0 -0 -0 -0 -0 -0 -0 -0 -0 -0 -0
0 0 0 0 0 0 0 0 0 0 0 0 0 0 0 0 0 0 0 0 -0 -0 -0 -0 -0 -0 -0 -0 -0 -0 0 -0 -0 -0 -0 -0 -0 -0 -0 -0 -0 -0 -0 -0 -0 -0 -0 -0 -0
0 0 0 0 0 0 0 0 0 0 0 0 0 0 0 0 0 0 -0 -0 0 -0 -0 -0 -0 -0 -0 -0 -0 0 -0 -0 0 0 -0 -0 -0 -0 -0 -0 -0 -0 -0 -0 -0 -0 -0 -0 -0
0 0 0 0 0 0 0 0 0 0 0 0 0 0 0 0 0 -0 -0 -0 -0 -0 -0 -0 -0 -0 -0 0 0 -0 -0 -0 -0 -0 -0 -0 -0 -0 -0 -0 -0 -0 -0 -0 -0 -0 -0 -0 -0
0 0 0 0 0 0 0 0 0 0 0 0 0 0 0 0 0 -0 -0 -0 -0 -0 -0 -0 -0 -0 -0 0 0 -0 -0 -0 0 -0 -0 -0 -0 -0 -0 -0 -0 -0 -0 -0 -0 -0 -0 -0 -0
0 0 0 0 0 0 0 0 0 0 0 0 0 0 0 0 -0 -0 -0 -0 -0 -0 -0 -0 0 0 0 0 0 -0 -0 -0 -0 -0 -0 -0 -0 -0 -0 -0 -0 -0 -0 -0 -0 -0 -0 -0 -0
0 0 0 0 0 0 0 0 0 0 0 0 0 0 0 0 -0 -0 -0 -0 -0 -0 -0 0 0 0 0 0 0 0 0 0 -0 -0 -0 -0 -0 -0 -0 -0 -0 -0 -0 -0 -0 -0 -0 -0 -0
0 0 0 0 0 0 0 0 0 0 0 0 0 0 0 -0 -0 0 -0 -0 -0 -0 -0 0 0 0 0 0 0 0 0 0 -0 -0 -0 -0 -0 -0 -0 0 -0 -0 -0 -0 -0 -0 -0 -0 -0
0 0 0 0 0 0 0 0 0 0 0 0 0 0 0 -0 0 0 -0 -0 -0 -0 -0 -0 0 -0 0 0 0 0 0 0 -0 -0 -0 0 0 0 0 0 -0 -0 -0 -0 -0 -0 -0 -0 -0
0 0 0 0 0 0 0 0 0 0 0 0 0 0 0 -0 0 0 -0 0 0 -0 0 -0 -0 0 0 0 0 0 0 0 0 0 0 0 0 0 0 0 -0 -0 -0 -0 -0 0 0 0 0
0 0 0 0 0 0 0 0 0 0 0 0 0 0 0 0 0 0 0 0 0 0 0 -0 -0 -0 0 0 0 0 0 0 0 0 0 0 0 0 0 0 -0 -0 0 0 0 0 0 0 0
0 0 0 0 0 0 0 0 0 0 0 0 0 0 0 0 0 0 0 0 0 0 0 -0 0 -0 0 0 0 0 0 0 -0 -0 0 0 0 0 0 0 0 0 0 0 0 0 0 0 0
0 0 0 0 0 0 0 0 0 0 0 0 0 0 0 0 0 0 0 0 0 0 0 0 0 0 0 0 0 0 0 0 -0 0 0 0 0 0 0 0 0 0 0 0 0 0 0 0 0
0 0 0 0 0 0 0 0 0 0 0 0 0 0 0 0 0 0 0 0 0 0 0 0 0 0 0 0 0 0 0 0 0 0 0 0 0 0 0 0 0 0 0 0 0 0 0 0 0
0 0 0 0 0 0 0 0 0 0 0 0 0 0 0 0 0 0 0 0 0 0 0 0 0 0 0 0 0 0 0 0 0 0 0 0 0 0 0 0 0 0 0 0 0 0 0 0 0
0 0 0 0 0 0 0 0 0 0 0 0 0 0 0 0 0 0 0 0 0 0 0 0 0 0 0 0 0 0 0 0 0 0 0 0 0 0 0 0 0 0 0 0 0 0 0 0 0
0 0 0 0 0 0 0 0 0 0 0 0 0 0 0 0 0 0 0 0 0 0 0 0 0 0 0 0 0 0 0 0 0 0 0 0 0 0 0 0 0 0 0 0 0 0 0 0 0
0 0 0 0 0 0 0 0 0 0 0 0 0 0 0 0 0 0 0 0 0 0 0 0 0 0 0 0 0 0 0 0 0 0 0 0 0 0 0 0 0 0 0 0 0 0 0 0 0
0 0 0 0 0 0 0 0 0 0 0 0 0 0 0 0 0 0 0 0 0 0 0 0 0 0 0 0 0 0 0 0 0 0 0 0 0 0 0 0 0 0 0 0 0 0 0 0 0
0 0 0 0 0 0 0 0 0 0 0 0 0 0 0 0 0 0 0 0 0 0 0 0 0 0 0 0 0 0 0 0 0 0 0 0 0 0 0 0 0 0 0 0 0 0 0 0 0
0 0 0 0 0 0 0 0 0 0 0 0 0 0 0 0 0 0 0 0 0 0 0 0 0 0 0 0 0 0 0 0 0 0 0 0 0 0 0 0 0 0 0 0 0 0 0 0 0
0 0 0 0 0 0 0 -0 0 0 0 0 0 0 0 0 0 0 0 0 0 0 0 0 0 0 0 0 0 0 0 0 0 0 0 0 0 0 0 0 0 0 0 0 0 0 0 0 0
0 0 0 0 0 0 0 0 -0 0 0 0 0 0 0 0 0 0 0 0 0 0 0 0 0 0 0 0 0 0 0 0 0 0 0 0 0 0 0 0 0 0 0 0 0 0 0 0 0
0 0 0 0 0 0 0 0 -0 0 0 0 0 0 0 0 0 0 0 0 0 0 0 0 0 0 0 0 0 0 0 0 0 0 0 0 0 0 0 0 0 0 0 0 0 0 0 0 0
0 0 0 0 0 0 0 0 0 0 0 0 0 0 0 0 0 0 0 0 0 0 0 0 0 0 0 0 0 0 0 0 0 0 0 0 0 0 0 0 0 0 0 0 0 0 0 0 0
0 0 0 0 0 0 0 0 0 -0 -0 0 0 0 0 0 0 0 0 0 0 0 0 0 0 0 0 0 0 0 0 0 0 0 0 0 0 0 0 0 0 0 0 0 0 0 0 0 0
0 0 0 0 0 0 0 0 0 0 0 0 0 0 0 0 0 0 0 0 0 0 0 0 0 0 0 0 0 0 0 0 0 0 0 0 0 0 0 0 0 0 0 0 0 0 0 0 0
0 0 0 0 0 0 0 0 0 -0 -0 0 0 0 0 0 0 0 0 0 0 0 0 0 0 0 0 0 0 0 0 0 0 0 0 0 0 0 0 0 0 0 0 0 0 0 0 0 0
0 0 0 0 0 0 0 0 0 -0 0 0 0 0 0 0 0 0 0 0 0 0 0 0 0 0 0 0 0 0 0 0 0 0 0 0 0 0 0 0 0 0 0 0 0 0 0 0 0
0 0 0 0 0 0 0 0 0 0 0 0 0 0 0 0 0 0 0 0 0 0 0 0 0 0 0 0 0 0 0 0 0 0 0 0 0 0 0 0 0 0 0 0 0 0 0 0 0
Wind_Speed_500mb
16 11 12 7 7 9 5 2 9 9 7 7 18 20 22 19 8 12 33 17 24 32 25 17 19 20 22 24 20 18 15 13 17 25 30 29 24 24 23 32 27 35 34 35 34 36 36 37 42
11 6 3 5 7 4 8 6 11 8 18 18 21 30 15 7 23 34 34 20 23 30 23 22 21 21 22 23 21 16 11 10 27 34 27 20 17 23 26 31 35 34 32 33 36 36 38 41 42
6 4 3 6 5 7 4 8 15 23 24 14 10 25 9 10 32 34 33 28 33 30 23 21 19 21 24 22 20 16 13 25 41 35 26 23 23 18 20 19 33 29 30 33 34 37 40 40 39
1 1 1 6 9 9 7 13 35 11 15 15 26 18 17 23 28 26 38 32 30 31 25 23 24 25 24 22 20 23 33 41 36 30 23 21 22 19 24 22 25 27 30 32 34 36 38 38 38
2 3 3 4 8 5 11 33 30 11 16 10 13 10 15 24 25 42 38 35 35 29 23 26 28 27 26 23 22 27 33 35 35 30 26 21 23 17 17 23 25 27 29 32 32 34 35 36 36
3 2 4 5 10 4 4 27 29 22 24 18 23 20 14 21 44 46 39 35 33 31 29 29 32 30 27 23 21 25 30 33 33 28 25 19 20 21 22 23 23 26 28 30 32 33 34 34 32
4 5 5 4 6 5 6 17 14 24 25 11 16 10 19 25 57 39 32 35 32 26 29 30 32 32 30 24 19 18 23 31 30 25 27 22 22 22 23 22 22 24 26 28 29 30 30 30 27
3 6 6 5 1 3 6 8 13 26 8 23 8 13 13 33 62 48 39 39 29 24 28 33 33 32 30 25 19 18 21 22 26 22 21 19 21 21 22 20 21 23 24 25 26 26 26 25 22
2 6 7 8 13 5 14 6 12 15 25 13 8 10 5 35 66 52 45 43 35 29 30 35 33 31 28 25 23 22 22 21 25 24 29 23 20 20 20 20 19 21 21 21 20 19 16 16 16
5 1 7 12 9 7 2 7 13 11 21 11 12 7 17 61 63 58 58 53 45 36 30 28 31 30 29 26 24 24 22 21 23 27 24 21 20 18 17 17 16 17 17 16 15 13 12 12 12
1 7 10 1 12 11 2 10 7 13 6 20 27 27 32 53 55 56 56 56 47 39 35 32 30 32 27 28 29 29 27 27 27 24 21 17 17 15 15 14 14 14 12 10 10 10 10 10 11
8 26 32 20 8 5 2 6 4 9 4 10 23 22 36 47 50 53 56 56 54 48 39 34 32 31 28 24 28 31 31 28 27 25 21 20 19 17 14 14 12 10 10 7 8 8 6 8 9
6 9 19 37 17 3 7 12 0 14 9 8 21 35 33 42 47 48 52 52 55 55 47 40 44 40 35 27 32 33 30 28 27 26 22 22 19 18 17 16 12 9 7 6 5 4 4 8 12
30 22 29 15 21 12 9 5 4 7 7 18 25 41 34 35 48 46 52 57 56 59 60 50 50 47 40 34 32 33 32 30 31 27 25 24 22 19 16 15 12 10 8 5 3 3 5 5 9
33 13 19 19 21 9 13 11 10 5 8 24 31 31 30 31 36 52 53 55 51 49 65 60 54 49 45 40 38 36 35 35 34 30 29 25 24 23 21 18 16 13 10 8 8 7 8 7 3
10 5 19 19 19 14 16 17 19 37 19 17 34 34 31 33 33 36 54 53 54 53 58 61 60 56 53 47 43 42 38 37 36 33 31 30 28 27 25 23 20 17 16 16 15 10 8 7 5
9 9 11 10 37 10 16 9 32 53 35 33 23 39 45 40 36 33 49 57 60 57 53 65 65 65 62 54 48 48 46 44 41 40 37 36 34 31 29 26 24 23 23 23 20 16 12 11 9
9 11 13 28 16 17 16 19 15 18 39 40 31 25 39 57 49 36 36 51 57 62 59 59 67 68 67 60 55 54 52 50 47 45 41 39 38 36 35 32 30 27 26 27 24 19 13 9 6
5 11 18 8 18 17 20 17 21 46 23 37 40 37 32 41 52 45 38 38 51 66 67 66 65 70 71 75 67 66 62 57 54 51 48 47 43 43 41 37 34 32 28 27 28 23 17 14 14
19 11 12 13 4 14 11 31 23 25 36 53 47 44 43 44 43 61 54 51 55 67 75 69 68 69 77 82 75 72 64 58 54 54 55 53 49 48 45 43 39 36 32 28 29 22 20 16 22
25 17 9 11 3 3 4 16 15 14 44 57 61 65 68 72 63 59 67 65 61 65 78 76 72 73 75 81 78 78 72 67 64 64 62 60 56 52 47 46 44 41 36 33 27 22 25 25 27
29 18 17 7 8 9 8 14 20 20 35 38 57 69 79 75 75 73 72 74 73 69 71 77 75 76 76 77 84 87 86 83 78 72 68 64 62 59 55 53 50 48 42 42 35 35 34 37 37
13 18 19 7 5 4 7 8 11 16 18 18 44 73 76 85 74 82 78 79 76 72 70 78 78 79 80 81 84 87 89 86 79 75 72 69 67 65 59 57 55 55 52 48 46 43 44 42 44
14 11 9 8 4 16 15 16 11 15 14 21 46 57 70 74 81 88 87 85 81 75 71 75 82 84 87 86 87 91 90 88 85 83 79 77 73 71 70 62 60 59 56 56 54 51 51 48 50
14 19 7 13 11 19 26 17 33 14 18 24 27 45 29 30 57 76 81 91 88 83 79 76 81 86 90 92 91 94 94 92 91 88 86 83 81 79 76 71 67 65 60 55 55 58 56 56 57
42 33 10 18 13 15 6 17 11 35 68 53 57 55 45 36 28 42 61 78 94 91 81 81 81 80 87 94 94 94 95 95 94 93 93 91 89 85 78 73 70 68 64 58 56 49 53 58 61
18 27 21 9 5 6 10 12 15 14 25 24 35 33 32 28 32 36 31 59 79 86 82 81 78 77 83 87 90 95 95 96 96 94 95 95 93 90 86 79 74 70 73 70 67 67 62 61 53
26 36 17 6 6 8 10 10 10 11 28 15 12 33 34 20 21 20 22 26 56 69 70 72 76 77 78 80 86 92 96 97 96 95 97 97 95 92 90 85 78 76 76 79 79 80 75 73 62
11 27 9 13 9 9 3 12 13 23 16 19 16 14 13 9 10 15 24 29 33 40 49 56 67 74 79 82 86 89 92 93 95 94 94 95 94 91 90 89 83 80 78 79 88 90 87 81 75
19 27 35 20 20 7 5 11 11 19 17 31 28 26 27 23 19 14 9 9 29 34 41 51 55 64 71 73 79 85 86 89 91 91 90 89 91 89 87 89 89 86 83 79 82 91 95 92 86
Wind_Direction_500mb
322 329 328 356 36 68 270 184 143 107 58 76 78 83 105 56 45 130 148 182 166 159 152 149 133 141 146 145 141 136 124 121 107 107 97 103 108 103 97 90 89 85 85 85 86 81 80 87 95
315 319 326 14 74 353 280 185 103 120 118 106 77 120 39 77 105 138 156 190 172 158 154 140 136 134 146 152 154 151 150 132 119 109 109 108 101 110 112 102 93 90 88 86 82 82 83 89 97
290 321 70 92 153 216 221 113 126 117 113 109 99 79 76 95 130 143 157 162 163 157 151 141 135 131 136 147 162 165 144 120 119 117 118 114 99 107 118 109 99 91 90 85 86 86 85 90 92
209 167 214 105 231 302 110 151 119 106 91 102 124 74 88 132 133 164 156 168 187 158 150 144 138 131 129 127 138 136 123 121 121 132 136 131 117 108 103 101 95 85 90 90 89 88 87 90 90
86 99 71 194 258 263 118 147 133 121 137 135 111 143 105 143 139 160 169 176 162 162 160 149 141 134 130 119 123 129 128 135 131 136 129 125 135 122 105 105 99 95 93 91 92 91 91 90 87
24 13 72 222 252 190 101 129 138 136 147 130 115 118 144 169 156 163 165 173 163 167 166 158 150 146 144 132 122 128 134 125 135 138 130 137 123 115 117 111 106 99 96 92 90 93 92 89 87
39 69 236 300 260 219 154 131 123 139 138 147 144 99 149 174 158 169 172 176 176 176 177 168 161 155 153 146 137 137 137 137 139 143 145 129 113 119 119 115 105 98 95 93 94 95 93 88 85
41 63 296 282 326 172 149 106 70 140 109 147 129 156 179 187 157 160 164 176 195 203 192 176 169 164 163 162 157 148 150 149 151 157 159 129 125 125 120 114 107 103 100 100 99 98 94 90 85
3 51 326 314 341 171 148 98 71 102 123 97 115 136 177 155 157 168 174 183 193 201 195 188 175 176 175 170 167 164 164 156 156 148 145 138 133 124 126 119 114 107 103 102 102 101 96 89 85
108 126 183 276 308 39 112 98 133 125 134 96 112 127 142 160 170 172 179 185 191 194 192 192 187 184 188 185 174 171 170 159 156 149 144 145 136 133 129 124 120 115 111 109 105 98 88 75 71
65 204 272 294 359 24 325 105 124 136 218 188 184 171 165 170 179 179 187 191 191 192 197 191 205 198 190 193 184 179 178 175 168 160 160 152 142 147 143 136 132 129 124 122 111 97 83 75 81
198 218 259 285 331 273 116 44 118 205 212 179 219 198 176 179 183 191 193 196 195 198 197 199 207 214 204 198 190 187 185 182 179 178 176 171 178 168 165 153 153 152 142 131 110 97 88 85 84
139 280 254 264 259 294 126 96 67 297 286 194 190 193 188 190 186 198 200 201 201 203 197 201 205 208 216 217 193 192 193 194 189 190 183 179 182 182 181 171 174 169 161 159 131 110 71 71 44
191 221 297 251 212 215 184 146 105 48 152 170 183 191 195 199 193 197 201 209 210 209 209 200 209 201 215 221 207 199 201 200 203 199 194 191 189 192 193 190 194 192 207 211 172 117 89 71 49
210 187 247 263 228 250 222 293 227 174 170 165 179 192 207 213 207 203 199 207 213 214 208 201 209 211 216 224 216 213 206 207 208 202 203 202 200 201 204 204 210 212 224 225 212 208 179 132 143
156 183 219 232 215 237 178 249 253 250 233 207 196 202 214 222 223 215 198 207 214 215 208 208 206 207 216 219 215 218 222 217 215 213 210 212 212 211 211 214 220 223 223 230 228 224 226 200 180
218 183 181 270 201 192 181 233 235 254 239 220 206 209 213 220 222 224 210 210 213 218 215 215 211 210 213 215 215 220 224 223 221 220 217 215 219 221 224 227 231 236 234 234 232 226 222 209 204
202 192 202 208 204 187 206 242 246 273 216 217 225 211 213 219 227 229 224 216 215 215 221 226 221 216 210 213 215 221 225 226 225 226 227 226 227 229 229 232 236 243 247 239 228 229 231 241 234
194 185 215 227 235 184 215 229 232 243 219 215 219 218 219 220 233 232 233 234 215 217 219 226 225 222 213 211 216 219 224 224 225 227 230 231 231 233 234 235 236 246 247 241 228 219 222 213 229
259 246 236 241 316 170 219 242 238 229 239 240 230 231 236 242 229 228 226 225 225 225 221 225 227 223 219 217 220 224 229 232 234 233 232 234 235 236 237 237 239 239 240 230 218 223 213 217 222
225 228 223 195 217 7 31 274 256 241 242 245 248 250 249 253 237 229 222 226 227 225 221 225 228 225 222 220 221 224 228 233 234 232 233 236 239 241 240 243 242 241 243 236 229 232 231 235 232
220 179 234 150 149 231 163 271 237 221 238 238 247 249 248 244 238 236 230 226 230 231 227 228 230 230 225 223 224 225 229 231 234 236 238 240 242 245 246 246 241 242 243 233 235 240 246 241 238
215 171 194 175 128 50 204 263 273 216 231 240 238 241 240 239 236 231 230 234 235 234 234 230 232 234 232 227 228 230 232 236 240 241 242 242 243 247 248 246 243 242 240 235 237 240 247 248 246
150 98 59 40 99 234 193 207 205 215 211 245 244 247 248 245 241 237 237 237 233 236 236 233 232 234 236 234 232 233 236 237 239 241 242 244 244 247 250 247 241 244 243 239 238 240 246 245 249
157 153 190 217 207 252 175 205 248 240 243 233 240 250 248 259 247 240 234 232 230 229 233 235 234 235 236 238 238 238 239 241 245 245 246 246 248 247 249 249 244 242 241 241 243 245 246 244 249
191 178 163 200 195 218 113 229 237 216 233 244 252 257 272 263 259 243 240 241 234 231 234 238 238 239 238 240 243 242 243 244 246 248 249 250 253 257 257 253 251 246 242 242 240 241 246 251 258
181 200 174 95 41 94 214 285 299 245 247 240 252 256 260 262 254 249 256 242 234 232 235 240 244 247 244 245 247 246 248 247 249 250 251 253 255 257 259 257 255 252 244 243 242 238 251 256 249
194 184 182 191 176 240 261 251 228 224 242 242 271 256 257 252 250 237 238 240 232 231 239 244 247 249 251 252 250 250 251 252 252 252 252 255 257 258 260 261 258 256 252 248 246 245 243 243 245
161 188 203 174 174 189 218 255 221 208 199 166 168 143 160 192 231 237 228 228 225 227 232 236 242 246 248 251 251 251 252 254 256 255 256 257 258 261 264 265 263 259 257 254 249 249 249 246 247
208 189 184 186 208 207 155 274 310 166 167 158 153 134 125 113 103 87 76 247 242 240 239 239 238 242 247 252 252 252 253 254 254 257 258 259 258 259 261 256 256 255 256 258 254 251 249 248 248
Wind_Speed_850mb
16 11 12 7 7 9 5 2 9 9 7 7 18 20 22 19 8 12 33 17 24 32 25 17 19 20 22 24 20 18 15 13 17 25 30 29 24 24 23 32 27 35 34 35 34 36 36 37 42
11 6 3 5 7 4 8 6 11 8 18 18 21 30 15 7 23 34 34 20 23 30 23 22 21 21 22 23 21 16 11 10 27 34 27 20 17 23 26 31 35 34 32 33 36 36 38 41 42
6 4 3 6 5 7 4 8 15 23 24 14 10 25 9 10 32 34 33 28 33 30 23 21 19 21 24 22 20 16 13 25 41 35 26 23 23 18 20 19 33 29 30 33 34 37 40 40 39
1 1 1 6 9 9 7 13 35 11 15 15 26 18 17 23 28 26 38 32 30 31 25 23 24 25 24 22 20 23 33 41 36 30 23 21 22 19 24 22 25 27 30 32 34 36 38 38 38
2 3 3 4 8 5 11 33 30 11 16 10 13 10 15 24 25 42 38 35 35 29 23 26 28 27 26 23 22 27 33 35 35 30 26 21 23 17 17 23 25 27 29 32 32 34 35 36 36
3 2 4 5 10 4 4 27 29 22 24 18 23 20 14 21 44 46 39 35 33 31 29 29 32 30 27 23 21 25 30 33 33 28 25 19 20 21 22 23 23 26 28 30 32 33 34 34 32
4 5 5 4 6 5 6 17 14 24 25 11 16 10 19 25 57 39 32 35 32 26 29 30 32 32 30 24 19 18 23 31 30 25 27 22 22 22 23 22 22 24 26 28 29 30 30 30 27
3 6 6 5 1 3 6 8 13 26 8 23 8 13 13 33 62 48 39 39 29 24 28 33 33 32 30 25 19 18 21 22 26 22 21 19 21 21 22 20 21 23 24 25 26 26 26 25 22
2 6 7 8 13 5 14 6 12 15 25 13 8 10 5 35 66 52 45 43 35 29 30 35 33 31 28 25 23 22 22 21 25 24 29 23 20 20 20 20 19 21 21 21 20 19 16 16 16
5 1 7 12 9 7 2 7 13 11 21 11 12 7 17 61 63 58 58 53 45 36 30 28 31 30 29 26 24 24 22 21 23 27 24 21 20 18 17 17 16 17 17 16 15 13 12 12 12
1 7 10 1 12 11 2 10 7 13 6 20 27 27 32 53 55 56 56 56 47 39 35 32 30 32 27 28 29 29 27 27 27 24 21 17 17 15 15 14 14 14 12 10 10 10 10 10 11
8 26 32 20 8 5 2 6 4 9 4 10 23 22 36 47 50 53 56 56 54 48 39 34 32 31 28 24 28 31 31 28 27 25 21 20 19 17 14 14 12 10 10 7 8 8 6 8 9
6 9 19 37 17 3 7 12 0 14 9 8 21 35 33 42 47 48 52 52 55 55 47 40 44 40 35 27 32 33 30 28 27 26 22 22 19 18 17 16 12 9 7 6 5 4 4 8 12
30 22 29 15 21 12 9 5 4 7 7 18 25 41 34 35 48 46 52 57 56 59 60 50 50 47 40 34 32 33 32 30 31 27 25 24 22 19 16 15 12 10 8 5 3 3 5 5 9
33 13 19 19 21 9 13 11 10 5 8 24 31 31 30 31 36 52 53 55 51 49 65 60 54 49 45 40 38 36 35 35 34 30 29 25 24 23 21 18 16 13 10 8 8 7 8 7 3
10 5 19 19 19 14 16 17 19 37 19 17 34 34 31 33 33 36 54 53 54 53 58 61 60 56 53 47 43 42 38 37 36 33 31 30 28 27 25 23 20 17 16 16 15 10 8 7 5
9 9 11 10 37 10 16 9 32 53 35 33 23 39 45 40 36 33 49 57 60 57 53 65 65 65 62 54 48 48 46 44 41 40 37 36 34 31 29 26 24 23 23 23 20 16 12 11 9
9 11 13 28 16 17 16 19 15 18 39 40 31 25 39 57 49 36 36 51 57 62 59 59 67 68 67 60 55 54 52 50 47 45 41 39 38 36 35 32 30 27 26 27 24 19 13 9 6
5 11 18 8 18 17 20 17 21 46 23 37 40 37 32 41 52 45 38 38 51 66 67 66 65 70 71 75 67 66 62 57 54 51 48 47 43 43 41 37 34 32 28 27 28 23 17 14 14
19 11 12 13 4 14 11 31 23 25 36 53 47 44 43 44 43 61 54 51 55 67 75 69 68 69 77 82 75 72 64 58 54 54 55 53 49 48 45 43 39 36 32 28 29 22 20 16 22
25 17 9 11 3 3 4 16 15 14 44 57 61 65 68 72 63 59 67 65 61 65 78 76 72 73 75 81 78 78 72 67 64 64 62 60 56 52 47 46 44 41 36 33 27 22 25 25 27
29 18 17 7 8 9 8 14 20 20 35 38 57 69 79 75 75 73 72 74 73 69 71 77 75 76 76 77 84 87 86 83 78 72 68 64 62 59 55 53 50 48 42 42 35 35 34 37 37
13 18 19 7 5 4 7 8 11 16 18 18 44 73 76 85 74 82 78 79 76 72 70 78 78 79 80 81 84 87 89 86 79 75 72 69 67 65 59 57 55 55 52 48 46 43 44 42 44
14 11 9 8 4 16 15 16 11 15 14 21 46 57 70 74 81 88 87 85 81 75 71 75 82 84 87 86 87 91 90 88 85 83 79 77 73 71 70 62 60 59 56 56 54 51 51 48 50
14 19 7 13 11 19 26 17 33 14 18 24 27 45 29 30 57 76 81 91 88 83 79 76 81 86 90 92 91 94 94 92 91 88 86 83 81 79 76 71 67 65 60 55 55 58 56 56 57
42 33 10 18 13 15 6 17 11 35 68 53 57 55 45 36 28 42 61 78 94 91 81 81 81 80 87 94 94 94 95 95 94 93 93 91 89 85 78 73 70 68 64 58 56 49 53 58 61
18 27 21 9 5 6 10 12 15 14 25 24 35 33 32 28 32 36 31 59 79 86 82 81 78 77 83 87 90 95 95 96 96 94 95 95 93 90 86 79 74 70 73 70 67 67 62 61 53
26 36 17 6 6 8 10 10 10 11 28 15 12 33 34 20 21 20 22 26 56 69 70 72 76 77 78 80 86 92 96 97 96 95 97 97 95 92 90 85 78 76 76 79 79 80 75 73 62
11 27 9 13 9 9 3 12 13 23 16 19 16 14 13 9 10 15 24 29 33 40 49 56 67 74 79 82 86 89 92 93 95 94 94 95 94 91 90 89 83 80 78 79 88 90 87 81 75
19 27 35 20 20 7 5 11 11 19 17 31 28 26 27 23 19 14 9 9 29 34 41 51 55 64 71 73 79 85 86 89 91 91 90 89 91 89 87 89 89 86 83 79 82 91 95 92 86
Wind_Direction_850mb
322 329 328 356 36 68 270 184 143 107 58 76 78 83 105 56 45 130 148 182 166 159 152 149 133 141 146 145 141 136 124 121 107 107 97 103 108 103 97 90 89 85 85 85 86 81 80 87 95
315 319 326 14 74 353 280 185 103 120 118 106 77 120 39 77 105 138 156 190 172 158 154 140 136 134 146 152 154 151 150 132 119 109 109 108 101 110 112 102 93 90 88 86 82 82 83 89 97
290 321 70 92 153 216 221 113 126 117 113 109 99 79 76 95 130 143 157 162 163 157 151 141 135 131 136 147 162 165 144 120 119 117 118 114 99 107 118 109 99 91 90 85 86 86 85 90 92
209 167 214 105 231 302 110 151 119 106 91 102 124 74 88 132 133 164 156 168 187 158 150 144 138 131 129 127 138 136 123 121 121 132 136 131 117 108 103 101 95 85 90 90 89 88 87 90 90
86 99 71 194 258 263 118 147 133 121 137 135 111 143 105 143 139 160 169 176 162 162 160 149 141 134 130 119 123 129 128 135 131 136 129 125 135 122 105 105 99 95 93 91 92 91 91 90 87
24 13 72 222 252 190 101 129 138 136 147 130 115 118 144 169 156 163 165 173 163 167 166 158 150 146 144 132 122 128 134 125 135 138 130 137 123 115 117 111 106 99 96 92 90 93 92 89 87
39 69 236 300 260 219 154 131 123 139 138 147 144 99 149 174 158 169 172 176 176 176 177 168 161 155 153 146 137 137 137 137 139 143 145 129 113 119 119 115 105 98 95 93 94 95 93 88 85
41 63 296 282 326 172 149 106 70 140 109 147 129 156 179 187 157 160 164 176 195 203 192 176 169 164 163 162 157 148 150 149 151 157 159 129 125 125 120 114 107 103 100 100 99 98 94 90 85
3 51 326 314 341 171 148 98 71 102 123 97 115 136 177 155 157 168 174 183 193 201 195 188 175 176 175 170 167 164 164 156 156 148 145 138 133 124 126 119 114 107 103 102 102 101 96 89 85
108 126 183 276 308 39 112 98 133 125 134 96 112 127 142 160 170 172 179 185 191 194 192 192 187 184 188 185 174 171 170 159 156 149 144 145 136 133 129 124 120 115 111 109 105 98 88 75 71
65 204 272 294 359 24 325 105 124 136 218 188 184 171 165 170 179 179 187 191 191 192 197 191 205 198 190 193 184 179 178 175 168 160 160 152 142 147 143 136 132 129 124 122 111 97 83 75 81
198 218 259 285 331 273 116 44 118 205 212 179 219 198 176 179 183 191 193 196 195 198 197 199 207 214 204 198 190 187 185 182 179 178 176 171 178 168 165 153 153 152 142 131 110 97 88 85 84
139 280 254 264 259 294 126 96 67 297 286 194 190 193 188 190 186 198 200 201 201 203 197 201 205 208 216 217 193 192 193 194 189 190 183 179 182 182 181 171 174 169 161 159 131 110 71 71 44
191 221 297 251 212 215 184 146 105 48 152 170 183 191 195 199 193 197 201 209 210 209 209 200 209 201 215 221 207 199 201 200 203 199 194 191 189 192 193 190 194 192 207 211 172 117 89 71 49
210 187 247 263 228 250 222 293 227 174 170 165 179 192 207 213 207 203 199 207 213 214 208 201 209 211 216 224 216 213 206 207 208 202 203 202 200 201 204 204 210 212 224 225 212 208 179 132 143
156 183 219 232 215 237 178 249 253 250 233 207 196 202 214 222 223 215 198 207 214 215 208 208 206 207 216 219 215 218 222 217 215 213 210 212 212 211 211 214 220 223 223 230 228 224 226 200 180
218 183 181 270 201 192 181 233 235 254 239 220 206 209 213 220 222 224 210 210 213 218 215 215 211 210 213 215 215 220 224 223 221 220 217 215 219 221 224 227 231 236 234 234 232 226 222 209 204
202 192 202 208 204 187 206 242 246 273 216 217 225 211 213 219 227 229 224 216 215 215 221 226 221 216 210 213 215 221 225 226 225 226 227 226 227 229 229 232 236 243 247 239 228 229 231 241 234
194 185 215 227 235 184 215 229 232 243 219 215 219 218 219 220 233 232 233 234 215 217 219 226 225 222 213 211 216 219 224 224 225 227 230 231 231 233 234 235 236 246 247 241 228 219 222 213 229
259 246 236 241 316 170 219 242 238 229 239 240 230 231 236 242 229 228 226 225 225 225 221 225 227 223 219 217 220 224 229 232 234 233 232 234 235 236 237 237 239 239 240 230 218 223 213 217 222
225 228 223 195 217 7 31 274 256 241 242 245 248 250 249 253 237 229 222 226 227 225 221 225 228 225 222 220 221 224 228 233 234 232 233 236 239 241 240 243 242 241 243 236 229 232 231 235 232
220 179 234 150 149 231 163 271 237 221 238 238 247 249 248 244 238 236 230 226 230 231 227 228 230 230 225 223 224 225 229 231 234 236 238 240 242 245 246 246 241 242 243 233 235 240 246 241 238
215 171 194 175 128 50 204 263 273 216 231 240 238 241 240 239 236 231 230 234 235 234 234 230 232 234 232 227 228 230 232 236 240 241 242 242 243 247 248 246 243 242 240 235 237 240 247 248 246
150 98 59 40 99 234 193 207 205 215 211 245 244 247 248 245 241 237 237 237 233 236 236 233 232 234 236 234 232 233 236 237 239 241 242 244 244 247 250 247 241 244 243 239 238 240 246 245 249
157 153 190 217 207 252 175 205 248 240 243 233 240 250 248 259 247 240 234 232 230 229 233 235 234 235 236 238 238 238 239 241 245 245 246 246 248 247 249 249 244 242 241 241 243 245 246 244 249
191 178 163 200 195 218 113 229 237 216 233 244 252 257 272 263 259 243 240 241 234 231 234 238 238 239 238 240 243 242 243 244 246 248 249 250 253 257 257 253 251 246 242 242 240 241 246 251 258
181 200 174 95 41 94 214 285 299 245 247 240 252 256 260 262 254 249 256 242 234 232 235 240 244 247 244 245 247 246 248 247 249 250 251 253 255 257 259 257 255 252 244 243 242 238 251 256 249
194 184 182 191 176 240 261 251 228 224 242 242 271 256 257 252 250 237 238 240 232 231 239 244 247 249 251 252 250 250 251 252 252 252 252 255 257 258 260 261 258 256 252 248 246 245 243 243 245
161 188 203 174 174 189 218 255 221 208 199 166 168 143 160 192 231 237 228 228 225 227 232 236 242 246 248 251 251 251 252 254 256 255 256 257 258 261 264 265 263 259 257 254 249 249 249 246 247
208 189 184 186 208 207 155 274 310 166 167 158 153 134 125 113 103 87 76 247 242 240 239 239 238 242 247 252 252 252 253 254 254 257 258 259 258 259 261 256 256 255 256 258 254 251 249 248 248